Home   Weather   Mettmann   Past weeks

Flag for Germany Past Weather in Mettmann, North Rhine-Westphalia, Germany — Yesterday and Last 2 Weeks

Now
46 °F

Broken clouds.


Feels Like: 41 °F
Forecast: 35 / 58 °F
Wind: 10 mph from Northwest

Location: Duesseldorf

Current Time: Apr 23, 2017 at 12:07:22 pm

Latest Report: Apr 23, 2017 at 11:20 am


Visibility: N/A

Pressure: 30.30 "Hg

Humidity: 53%

Dew Point: 30 °F

Location of MettmannLocation

Past Weather in Mettmann — Graph

°F

Mettmann Temperature Yesterday

Maximum temperature yesterday: 52 °F (at 12:20 am)
Minimum temperature yesterday: 43 °F (at 5:50 am)
Average temperature yesterday: 47 °F

High & Low Weather Summary for the Past Weeks

 TemperatureHumidityPressure
High73 °F (Apr 9, 6:50 pm)100% (Apr 9, 2:20 am)30.63 "Hg (Apr 9, 2:20 am)
Low27 °F (Apr 20, 4:50 am)25% (Apr 9, 5:20 pm)29.92 "Hg (Apr 12, 5:20 pm)
Average47 °F69%30.20 "Hg
* Reported Apr 8 10:20 am — Apr 23 10:50 am, Mettmann, Weather by CustomWeather, © 2017

Note: Actual official high and low records may vary slightly from our data, if they occured in-between our weather recording intervals... More about our weather records

Advertising

Mettmann Weather History for the Previous 24 Hours

Scroll right to see more
 ConditionsComfort  
Time TempWeatherWind HumidityBarometerVisibility
10:50 am
Sun, Apr 23
48 °FScattered clouds.8 mph54%30.30 "HgN/A
10:20 am46 °FScattered clouds.8 mph62%30.30 "HgN/A
9:50 am45 °FScattered clouds.12 mph66%30.30 "HgN/A
9:20 am43 °FScattered clouds.10 mph71%30.30 "HgN/A
8:50 am41 °FPartly sunny.9 mph76%30.30 "HgN/A
8:20 am41 °FPartly sunny.9 mph81%30.30 "HgN/A
7:50 am41 °FPartly sunny.7 mph76%30.27 "HgN/A
7:20 am41 °FPartly sunny.7 mph76%30.27 "HgN/A
6:50 am39 °FPartly sunny.7 mph81%30.27 "HgN/A
6:20 am39 °FPassing clouds.8 mph81%30.27 "HgN/A
5:50 am39 °FPassing clouds.6 mph81%30.27 "HgN/A
5:20 am39 °FPassing clouds.6 mph81%30.27 "HgN/A
4:50 am39 °FPassing clouds.7 mph81%30.27 "HgN/A
4:20 am39 °FPassing clouds.7 mph81%30.27 "HgN/A
3:50 am39 °FClear.7 mph81%30.27 "Hg10 mi
3:20 am39 °FPassing clouds.7 mph81%30.27 "HgN/A
2:50 am39 °FPassing clouds.6 mph81%30.27 "HgN/A
2:20 am41 °FPassing clouds.7 mph76%30.27 "HgN/A
1:50 am41 °FPassing clouds.7 mph76%30.27 "HgN/A
1:20 am43 °FPartly cloudy.7 mph71%30.27 "HgN/A
12:50 am43 °FPartly cloudy.9 mph71%30.27 "HgN/A
12:20 am43 °FPartly cloudy.5 mph71%30.27 "HgN/A
11:50 pm
Sat, Apr 22
43 °FPassing clouds.6 mph71%30.27 "HgN/A
11:20 pm43 °FPassing clouds.7 mph66%30.27 "HgN/A
10:50 pm43 °FClear.9 mph66%30.27 "Hg10 mi
10:20 pm45 °FClear.8 mph61%30.27 "Hg10 mi
9:50 pm45 °FPassing clouds.10 mph61%30.27 "HgN/A
9:20 pm46 °FPassing clouds.14 mph53%30.27 "HgN/A
8:50 pm46 °FPassing clouds.13 mph53%30.24 "HgN/A
8:20 pm46 °FPartly sunny.12 mph53%30.24 "HgN/A
7:50 pm48 °FScattered clouds.12 mph46%30.24 "HgN/A
7:20 pm48 °FScattered clouds.12 mph50%30.24 "HgN/A
6:50 pm50 °FScattered clouds.14 mph50%30.24 "HgN/A
6:20 pm50 °FBroken clouds.14 mph50%30.24 "HgN/A
5:50 pm50 °FBroken clouds.14 mph54%30.24 "HgN/A
5:20 pm50 °FBroken clouds.15 mph54%30.24 "HgN/A
4:50 pm50 °FBroken clouds.15 mph54%30.24 "HgN/A
4:20 pm50 °FBroken clouds.16 mph54%30.24 "HgN/A
3:50 pm52 °FBroken clouds.13 mph50%30.27 "HgN/A
3:20 pm52 °FBroken clouds.14 mph50%30.27 "HgN/A
2:50 pm50 °FBroken clouds.12 mph54%30.27 "HgN/A
2:20 pm48 °FBroken clouds.13 mph62%30.27 "HgN/A
1:50 pm50 °FBroken clouds.15 mph54%30.27 "HgN/A
1:20 pm50 °FScattered clouds.13 mph54%30.27 "HgN/A
12:50 pm50 °FScattered clouds.17 mph54%30.30 "HgN/A
12:20 pm46 °FBroken clouds.10 mph71%30.30 "HgN/A
Weather by CustomWeather, © 2017

See weather overviewHow to use our weather pages